TimeEST,TemperatureF,Dew PointF,Humidity,Sea Level PressureIn,VisibilityMPH,Wind Direction,Wind SpeedMPH,Gust SpeedMPH,PrecipitationIn,Events,Conditions,WindDirDegrees,DateUTC
12:53 AM,43.0,32.0,65,30.21,-9999.0,North,6.9,-,N/A,,Unknown,350,2013-01-18 05:53:00
1:53 AM,41.0,33.1,73,30.22,-9999.0,North,6.9,-,N/A,,Unknown,350,2013-01-18 06:53:00
2:53 AM,43.0,34.0,71,30.23,-9999.0,North,5.8,-,N/A,,Unknown,360,2013-01-18 07:53:00
3:53 AM,43.0,34.0,71,30.23,-9999.0,North,4.6,-,N/A,,Unknown,360,2013-01-18 08:53:00
4:53 AM,41.0,35.1,79,30.25,-9999.0,Calm,Calm,-,N/A,,Unknown,0,2013-01-18 09:53:00
5:53 AM,39.9,34.0,79,30.26,-9999.0,North,4.6,-,N/A,,Unknown,360,2013-01-18 10:53:00
6:53 AM,37.9,35.1,89,30.30,-9999.0,Calm,Calm,-,N/A,,Unknown,0,2013-01-18 11:53:00
7:53 AM,37.9,34.0,86,30.32,-9999.0,Calm,Calm,-,N/A,,Unknown,0,2013-01-18 12:53:00
8:53 AM,44.1,39.0,82,30.36,-9999.0,NE,6.9,-,N/A,,Unknown,40,2013-01-18 13:53:00
9:53 AM,48.9,39.0,69,30.37,-9999.0,NE,9.2,18.4,N/A,,Unknown,50,2013-01-18 14:53:00
10:53 AM,54.0,39.9,59,30.38,-9999.0,NE,15.0,25.3,N/A,,Unknown,50,2013-01-18 15:53:00
11:53 AM,57.0,41.0,55,30.36,-9999.0,ENE,12.7,20.7,N/A,,Unknown,70,2013-01-18 16:53:00
12:53 PM,57.0,39.9,53,30.35,-9999.0,NE,11.5,20.7,N/A,,Unknown,50,2013-01-18 17:53:00
1:53 PM,61.0,39.9,46,30.33,-9999.0,NNE,10.4,19.6,N/A,,Unknown,30,2013-01-18 18:53:00
2:53 PM,62.1,39.9,44,30.32,-9999.0,NE,11.5,18.4,N/A,,Unknown,40,2013-01-18 19:53:00
3:53 PM,63.0,39.0,41,30.32,-9999.0,NE,15.0,25.3,N/A,,Unknown,40,2013-01-18 20:53:00
4:53 PM,61.0,41.0,48,30.33,-9999.0,NE,11.5,23.0,N/A,,Unknown,50,2013-01-18 21:53:00
5:53 PM,57.0,39.9,53,30.36,-9999.0,NE,8.1,17.3,N/A,,Unknown,50,2013-01-18 22:53:00
6:53 PM,54.0,39.0,57,30.37,-9999.0,NE,5.8,-,N/A,,Unknown,50,2013-01-18 23:53:00
7:53 PM,52.0,35.1,53,30.39,-9999.0,NE,9.2,-,N/A,,Unknown,50,2013-01-19 00:53:00
8:53 PM,50.0,35.1,57,30.40,-9999.0,NE,8.1,-,N/A,,Unknown,50,2013-01-19 01:53:00
9:53 PM,48.0,35.1,61,30.40,-9999.0,NE,5.8,-,N/A,,Unknown,40,2013-01-19 02:53:00
10:53 PM,46.9,34.0,61,30.38,-9999.0,NE,5.8,-,N/A,,Unknown,40,2013-01-19 03:53:00
11:53 PM,45.0,34.0,65,30.37,-9999.0,NE,3.5,-,N/A,,Unknown,40,2013-01-19 04:53:00